Time,TemperatureF,DewpointF,PressureIn,WindDirection,WindDirectionDegrees,WindSpeedMPH,WindSpeedGustMPH,Humidity,HourlyPrecipIn,Conditions,Clouds,dailyrainin,SoftwareType,DateUTC
2013-08-19 00:12:00,60.0,59.0,27.88,ESE,113,0.0,1.0,95,0.00,,,0.00,,2013-08-19 04:12:00,
2013-08-19 00:23:00,60.0,59.0,27.88,ESE,113,0.0,1.0,95,0.00,,,0.00,,2013-08-19 04:23:00,
2013-08-19 00:42:00,59.0,58.0,27.88,ESE,113,0.0,1.0,96,0.00,,,0.00,,2013-08-19 04:42:00,
2013-08-19 00:53:00,59.0,58.0,27.88,ESE,113,0.0,0.0,96,0.00,,,0.00,,2013-08-19 04:53:00,
2013-08-19 01:11:00,59.0,58.0,27.88,ESE,113,0.0,1.0,96,0.00,,,0.00,,2013-08-19 05:11:00,
2013-08-19 01:22:00,59.0,58.0,27.87,ESE,113,0.0,1.0,96,0.00,,,0.00,,2013-08-19 05:22:00,
2013-08-19 01:52:00,58.0,57.0,27.87,ESE,113,0.0,0.0,96,0.00,,,0.00,,2013-08-19 05:52:00,
2013-08-19 02:11:00,57.0,56.0,27.87,ESE,113,0.0,1.0,97,0.00,,,0.00,,2013-08-19 06:11:00,
2013-08-19 02:21:00,58.0,57.0,27.86,ESE,113,0.0,1.0,97,0.00,,,0.00,,2013-08-19 06:21:00,
2013-08-19 02:42:00,58.0,57.0,27.86,ESE,114,0.0,1.0,97,0.00,,,0.00,,2013-08-19 06:42:00,
2013-08-19 02:52:00,57.0,56.0,27.86,ESE,113,0.0,1.0,97,0.00,,,0.00,,2013-08-19 06:52:00,
2013-08-19 03:12:00,57.0,56.0,27.86,ESE,113,0.0,1.0,97,0.00,,,0.00,,2013-08-19 07:12:00,
2013-08-19 03:21:00,56.0,55.0,27.86,ESE,113,0.0,1.0,97,0.00,,,0.00,,2013-08-19 07:21:00,
2013-08-19 03:52:00,56.0,55.0,27.85,ENE,77,1.0,2.0,97,0.00,,,0.00,,2013-08-19 07:52:00,
2013-08-19 04:11:00,56.0,55.0,27.85,ENE,78,1.0,1.0,97,0.00,,,0.00,,2013-08-19 08:11:00,
2013-08-19 04:21:00,55.0,54.0,27.84,ENE,78,0.0,1.0,97,0.00,,,0.00,,2013-08-19 08:21:00,
2013-08-19 04:52:00,55.0,54.0,27.84,WSW,257,2.0,2.0,98,0.00,,,0.00,,2013-08-19 08:52:00,
2013-08-19 05:11:00,56.0,55.0,27.84,SW,235,1.0,2.0,98,0.00,,,0.00,,2013-08-19 09:11:00,
2013-08-19 05:22:00,54.0,53.0,27.84,NE,46,2.0,3.0,97,0.00,,,0.00,,2013-08-19 09:22:00,
2013-08-19 05:43:00,54.0,53.0,27.84,ENE,78,2.0,3.0,97,0.00,,,0.00,,2013-08-19 09:43:00,
2013-08-19 05:53:00,53.0,52.0,27.84,NE,43,0.0,2.0,97,0.00,,,0.00,,2013-08-19 09:53:00,
2013-08-19 06:23:00,53.0,52.0,27.84,East,96,0.0,1.0,97,0.00,,,0.00,,2013-08-19 10:23:00,
2013-08-19 06:43:00,53.0,52.0,27.84,East,98,0.0,1.0,98,0.01,,,0.01,,2013-08-19 10:43:00,
2013-08-19 06:52:00,53.0,52.0,27.84,East,98,0.0,1.0,98,0.01,,,0.01,,2013-08-19 10:52:00,
2013-08-19 07:12:00,53.0,52.0,27.84,East,98,0.0,1.0,98,0.01,,,0.01,,2013-08-19 11:12:00,
2013-08-19 07:22:00,54.0,53.0,27.84,East,99,0.0,1.0,98,0.01,,,0.01,,2013-08-19 11:22:00,
2013-08-19 07:45:00,54.0,53.0,27.85,East,97,0.0,1.0,98,0.00,,,0.01,,2013-08-19 11:45:00,
2013-08-19 07:52:00,56.0,55.0,27.85,ESE,105,0.0,1.0,98,0.00,,,0.01,,2013-08-19 11:52:00,
2013-08-19 08:11:00,56.0,55.0,27.84,ESE,117,0.0,2.0,98,0.00,,,0.01,,2013-08-19 12:11:00,
2013-08-19 08:21:00,57.0,56.0,27.84,SW,226,0.0,0.0,98,0.00,,,0.01,,2013-08-19 12:21:00,
2013-08-19 08:42:00,58.0,57.0,27.84,SW,226,0.0,1.0,97,0.00,,,0.01,,2013-08-19 12:42:00,
2013-08-19 08:52:00,59.0,58.0,27.84,SW,226,0.0,1.0,97,0.00,,,0.01,,2013-08-19 12:52:00,
2013-08-19 09:22:00,61.0,60.0,27.83,ESE,115,1.0,3.0,96,0.00,,,0.01,,2013-08-19 13:22:00,
2013-08-19 09:42:00,63.0,61.0,27.83,SW,218,0.0,2.0,92,0.00,,,0.01,,2013-08-19 13:42:00,
2013-08-19 09:52:00,64.0,61.0,27.84,SW,223,0.0,1.0,90,0.00,,,0.01,,2013-08-19 13:52:00,
2013-08-19 10:22:00,67.0,61.0,27.83,WSW,238,3.0,7.0,80,0.00,,,0.01,,2013-08-19 14:22:00,
2013-08-19 10:42:00,68.0,60.0,27.83,SW,235,2.0,6.0,76,0.00,,,0.01,,2013-08-19 14:42:00,
2013-08-19 10:52:00,69.0,61.0,27.82,SW,225,2.0,4.0,75,0.00,,,0.01,,2013-08-19 14:52:00,
2013-08-19 11:11:00,71.0,63.0,27.82,WSW,250,1.0,6.0,75,0.00,,,0.01,,2013-08-19 15:11:00,
2013-08-19 11:23:00,72.0,62.0,27.82,WSW,245,2.0,7.0,71,0.00,,,0.01,,2013-08-19 15:23:00,
2013-08-19 11:44:00,72.0,64.0,27.81,SSW,211,1.0,5.0,75,0.00,,,0.01,,2013-08-19 15:44:00,
2013-08-19 11:54:00,73.0,63.0,27.81,WNW,293,3.0,5.0,70,0.00,,,0.01,,2013-08-19 15:54:00,
2013-08-19 12:13:00,74.0,63.0,27.81,WSW,255,3.0,5.0,68,0.00,,,0.01,,2013-08-19 16:13:00,
2013-08-19 12:23:00,75.0,62.0,27.81,WSW,237,4.0,8.0,63,0.00,,,0.01,,2013-08-19 16:23:00,
2013-08-19 12:47:00,76.0,63.0,27.81,SW,219,2.0,8.0,64,0.00,,,0.01,,2013-08-19 16:47:00,
2013-08-19 13:13:00,76.0,61.0,27.80,SW,232,4.0,7.0,59,0.00,,,0.01,,2013-08-19 17:13:00,
2013-08-19 13:30:00,78.0,-99.9,27.79,WSW,238,2.0,5.0,60,0.00,,,0.01,,2013-08-19 17:30:00,
2013-08-19 13:49:00,79.0,64.0,27.78,WNW,285,2.0,7.0,60,0.00,,,0.01,,2013-08-19 17:49:00,
2013-08-19 13:57:00,79.0,61.0,27.79,SW,228,3.0,8.0,54,0.00,,,0.01,,2013-08-19 17:57:00,
2013-08-19 14:19:00,79.0,61.0,27.78,WSW,252,3.0,7.0,55,0.00,,,0.01,,2013-08-19 18:19:00,
2013-08-19 14:28:00,79.0,60.0,27.78,SW,219,3.0,9.0,53,0.00,,,0.01,,2013-08-19 18:28:00,
2013-08-19 14:50:00,-999.0,-99.9,27.77,West,262,3.0,11.0,55,0.00,,,0.01,,2013-08-19 18:50:00,
2013-08-19 15:00:00,-999.0,-99.9,27.77,WSW,252,4.0,7.0,52,0.00,,,0.01,,2013-08-19 19:00:00,
2013-08-19 15:16:00,81.0,61.0,27.76,WSW,257,3.0,6.0,51,0.00,,,0.01,,2013-08-19 19:16:00,
2013-08-19 15:30:00,-999.0,-99.9,27.76,West,268,2.0,6.0,51,0.00,,,0.01,,2013-08-19 19:30:00,
2013-08-19 15:50:00,80.0,59.0,27.76,SW,214,4.0,8.0,48,0.00,,,0.01,,2013-08-19 19:50:00,
2013-08-19 15:59:00,80.0,62.0,27.76,WSW,253,3.0,6.0,54,0.00,,,0.01,,2013-08-19 19:59:00,
2013-08-19 16:20:00,80.0,59.0,27.76,SW,231,3.0,7.0,48,0.00,,,0.01,,2013-08-19 20:20:00,
2013-08-19 16:30:00,80.0,-99.9,27.76,WSW,239,3.0,7.0,50,0.00,,,0.01,,2013-08-19 20:30:00,
2013-08-19 17:00:00,-999.0,-99.9,27.76,WSW,257,2.0,7.0,-999,-99.99,,,-99.99,,2013-08-19 21:00:00,
2013-08-19 17:16:00,80.0,61.0,27.75,WNW,287,2.0,6.0,52,0.00,,,0.01,,2013-08-19 21:16:00,
2013-08-19 17:25:00,80.0,60.0,27.76,WSW,249,2.0,6.0,51,0.00,,,0.01,,2013-08-19 21:25:00,
2013-08-19 17:46:00,80.0,61.0,27.76,West,273,2.0,6.0,52,0.00,,,0.01,,2013-08-19 21:46:00,
2013-08-19 17:55:00,80.0,60.0,27.76,WNW,288,3.0,6.0,51,0.00,,,0.01,,2013-08-19 21:55:00,
2013-08-19 18:25:00,80.0,62.0,27.76,West,279,1.0,4.0,55,0.00,,,0.01,,2013-08-19 22:25:00,
2013-08-19 18:44:00,79.0,61.0,27.77,WNW,298,1.0,5.0,55,0.00,,,0.01,,2013-08-19 22:44:00,
2013-08-19 18:55:00,78.0,61.0,27.77,NW,311,1.0,3.0,56,0.00,,,0.01,,2013-08-19 22:55:00,
2013-08-19 19:15:00,78.0,61.0,27.77,WSW,242,1.0,4.0,56,0.00,,,0.01,,2013-08-19 23:15:00,
2013-08-19 19:25:00,76.0,61.0,27.77,SW,235,0.0,5.0,60,0.00,,,0.01,,2013-08-19 23:25:00,
2013-08-19 19:48:00,74.0,61.0,27.77,ESE,118,0.0,1.0,64,0.00,,,0.01,,2013-08-19 23:48:00,
2013-08-19 19:55:00,73.0,62.0,27.78,ESE,118,0.0,1.0,68,0.00,,,0.01,,2013-08-19 23:55:00,
2013-08-19 20:11:00,72.0,62.0,27.77,WNW,294,0.0,2.0,71,0.00,,,0.01,,2013-08-20 00:11:00,
2013-08-19 20:24:00,71.0,62.0,27.78,West,263,0.0,1.0,72,0.00,,,0.01,,2013-08-20 00:24:00,
2013-08-19 20:42:00,70.0,61.0,27.78,West,259,0.0,1.0,72,0.00,,,0.01,,2013-08-20 00:42:00,
2013-08-19 20:53:00,69.0,61.0,27.78,WSW,258,0.0,1.0,77,0.00,,,0.01,,2013-08-20 00:53:00,
2013-08-19 21:11:00,67.0,61.0,27.79,West,259,0.0,0.0,80,0.00,,,0.01,,2013-08-20 01:11:00,
2013-08-19 21:22:00,66.0,60.0,27.79,West,259,0.0,0.0,81,0.00,,,0.01,,2013-08-20 01:22:00,
2013-08-19 21:42:00,67.0,60.0,27.79,West,259,0.0,1.0,79,0.00,,,0.01,,2013-08-20 01:42:00,
2013-08-19 21:52:00,66.0,61.0,27.79,West,259,0.0,1.0,83,0.00,,,0.01,,2013-08-20 01:52:00,
2013-08-19 22:11:00,64.0,60.0,27.79,NE,56,1.0,2.0,87,0.00,,,0.01,,2013-08-20 02:11:00,
2013-08-19 22:21:00,65.0,61.0,27.79,NE,53,0.0,1.0,87,0.00,,,0.01,,2013-08-20 02:21:00,
2013-08-19 22:52:00,63.0,60.0,27.79,ENE,72,0.0,0.0,90,0.00,,,0.01,,2013-08-20 02:52:00,
2013-08-19 23:22:00,63.0,61.0,27.79,ENE,72,1.0,1.0,93,0.00,,,0.01,,2013-08-20 03:22:00,
2013-08-19 23:43:00,62.0,60.0,27.79,ENE,72,0.0,0.0,93,0.00,,,0.01,,2013-08-20 03:43:00,
2013-08-19 23:54:00,62.0,60.0,27.79,ENE,72,0.0,0.0,93,0.00,,,0.01,,2013-08-20 03:54:00,